[[{"header":{"parameterUnit":"m.s-1","parameterCategory":1,"la1":30.2992,"la2":30.254,"lo1":-89.0895,"lo2":-89.0443,"dy":0.0025,"dx":0.0025,"nx":19,"ny":19,"refTime":"2026-03-25T03:00:00:Z","depth":0,"parameterNumber":2,"parameterNumberName":"U-component_of_WINDS"},"data":[0,0,0,-3.8747,-3.8749,-3.8819,-3.882,-3.8932,-3.8934,0,0,0,0,0,0,0,0,0,0,0,-3.8739,-3.874,-3.8747,-3.8749,-3.8819,-3.882,-3.8932,-3.8934,0,0,0,0,0,0,0,0,0,0,0,-3.8738,-3.874,-3.8741,-3.8749,-3.8819,-3.882,-3.8932,-3.8871,0,0,0,0,0,0,0,0,0,0,-3.8798,-3.8803,-3.8739,-3.8741,-3.875,-3.8819,-3.882,-3.8867,-3.8874,-3.891,0,-3.8944,0,-3.8941,-3.8943,-3.8943,0,0,0,-3.8739,-3.8797,-3.8805,-3.8741,-3.875,-3.8819,-3.8785,-3.8871,-3.8879,-3.892,-3.8946,-3.8949,-3.8943,-3.8943,-3.8944,-3.9181,-3.9183,0,0,-3.8735,-3.8758,-3.8799,-3.8811,-3.8801,-3.8783,-3.8787,-3.8876,-3.8906,-3.8946,-3.8951,-3.8945,-3.8944,-3.8945,-3.918,-3.9182,0,0,0,-3.8731,-3.8756,-3.8761,-3.8807,-3.8818,-3.8785,-3.879,-3.8902,-3.8901,-3.8953,-3.8946,-3.8945,-3.8947,-3.9178,-3.918,-3.9279,0,0,0,-3.8728,-3.8753,-3.876,-3.8774,-3.8817,-3.886,-3.8815,-3.8895,-3.8904,-3.8946,-3.8945,-3.8948,-3.9176,-3.9179,-3.9272,-3.9321,0,0,0,-3.873,-3.8753,-3.8768,-3.8776,-3.8807,-3.8858,-3.8863,-3.8897,-3.8901,-3.8943,-3.8948,-3.9175,-3.9179,-3.9267,-3.9311,-3.9389,0,0,0,-3.8738,-3.8854,-3.877,-3.8897,-3.8807,-3.892,-3.8862,-3.8945,-3.8993,-3.8946,-3.9176,-3.918,-3.9265,-3.9305,-3.9383,-3.9458,-3.9491,0,0,-3.8897,-3.8874,-3.8947,-3.8874,-3.9008,-3.8907,-3.9056,-3.9078,-3.9061,-3.9142,-3.9148,-3.9275,-3.931,-3.9388,-3.9676,-3.9703,0,0,0,-3.9005,-3.9058,-3.9089,-3.9136,-3.9156,-3.9178,-3.9175,-3.9184,-3.9252,-3.9108,-3.9324,-3.9345,-3.939,-3.9424,-3.9447,-3.9484,-3.9198,-3.9197,-3.9197,-3.926,-3.9234,-3.9353,-3.9337,-3.9384,-3.9382,-3.9417,-3.9429,-3.9387,-3.944,-3.9462,-3.964,-3.9682,-3.9699,-3.9737,-3.9502,-3.9502,-3.9502,-3.9503,-3.9488,-3.9558,-3.9504,-3.96,-3.9573,-3.9653,-3.9658,-3.9627,-3.9698,-3.962,-3.9658,-3.9573,-3.9729,-3.9761,-3.951,-3.9508,-3.9508,-3.9507,-3.9506,-3.965,-3.9678,-3.9689,-3.9757,-3.9812,-3.9793,-3.9865,-3.9838,-3.9812,-3.985,-3.9871,-3.987,-3.9863,-3.9863,-3.9864,-3.9864,-3.9865,-3.9865,-3.9866,-3.9812,-3.982,-3.9884,-3.9919,-3.9947,-3.9981,-3.9984,-4.0011,-4.0035,-4.0009,-4.0009,-3.9963,-3.975,-3.9696,-3.9875,-3.9873,-3.9872,-3.9871,-3.9871,-4.0048,-3.9991,-4.009,-4.0118,-4.0159,-4.0217,-4.0183,-4.0242,-4.0261,-4.0298,-4.0246,-4.0094,-4.0067,-4.0049,-4.0003,-4.0251,-4.0251,-4.0251,-4.0251,-4.0182,-4.0168,-4.0264,-4.0312,-4.0356,-4.0337,-4.0451,-4.0456,-4.0452,-4.0463,-4.0424,-4.0363,-4.0346,-4.033,-4.0305,-4.0262,-4.0571,-4.0571,-4.0571,-4.0326,-4.0315,-4.0416,-4.0412,-4.0443,-4.0471,-4.0577,-4.0635,-4.062,-4.0584,-4.0471,-4.0457,-4.0358,-4.0328,-4.0284,-4.0247,-4.0168,0,0]},{"header":{"parameterUnit":"m.s-1","parameterCategory":1,"la1":30.2992,"la2":30.254,"lo1":-89.0895,"lo2":-89.0443,"dy":0.0025,"dx":0.0025,"nx":19,"ny":19,"refTime":"2026-03-25T03:00:00:Z","depth":0,"parameterNumber":3,"parameterNumberName":"V-component_of_WINDS"},"data":[0,0,0,2.7916,2.7917,2.799,2.799,2.8051,2.8051,0,0,0,0,0,0,0,0,0,0,0,2.7876,2.7876,2.7916,2.7917,2.799,2.799,2.8051,2.8051,0,0,0,0,0,0,0,0,0,0,0,2.7876,2.7876,2.7876,2.7917,2.7989,2.799,2.805,2.8007,0,0,0,0,0,0,0,0,0,0,2.7942,2.7887,2.7876,2.7875,2.7918,2.7989,2.799,2.8005,2.801,2.8004,0,2.7996,0,2.8024,2.8053,2.8053,0,0,0,2.793,2.7883,2.792,2.7875,2.7918,2.7989,2.7961,2.8008,2.8013,2.801,2.7997,2.8,2.8025,2.8053,2.8053,2.7984,2.7983,0,0,2.7926,2.7878,2.7917,2.7922,2.791,2.7958,2.7963,2.8012,2.7993,2.7997,2.8002,2.8026,2.8053,2.8054,2.7985,2.7984,0,0,0,2.7906,2.7875,2.7911,2.7919,2.7934,2.796,2.7965,2.7991,2.8007,2.8003,2.8027,2.8054,2.8054,2.7986,2.7984,2.7892,0,0,0,2.7904,2.7863,2.7909,2.788,2.7933,2.7964,2.7943,2.8004,2.8011,2.8027,2.8054,2.8054,2.7987,2.7985,2.7897,2.7855,0,0,0,2.7877,2.786,2.7865,2.7877,2.7907,2.7964,2.7984,2.8007,2.8025,2.8053,2.8054,2.7988,2.7986,2.7901,2.7862,2.7823,0,0,0,2.7834,2.7779,2.7862,2.781,2.7906,2.7907,2.7984,2.7987,2.8,2.8054,2.7987,2.7985,2.7902,2.7867,2.7827,2.7781,2.7757,0,0,2.7737,2.7765,2.7739,2.7816,2.779,2.79,2.7861,2.7917,2.7963,2.7974,2.7973,2.7895,2.7863,2.7824,2.7644,2.7625,0,0,0,2.7692,2.7672,2.7676,2.7688,2.7731,2.7766,2.7834,2.7855,2.7868,2.7959,2.7873,2.7855,2.7834,2.7814,2.7798,2.7783,2.7974,2.7974,2.7974,2.7483,2.7548,2.7509,2.7582,2.7593,2.7666,2.768,2.7722,2.7781,2.776,2.7763,2.7646,2.762,2.7609,2.7593,2.7745,2.7744,2.7744,2.7744,2.7346,2.7328,2.7414,2.7406,2.7475,2.7468,2.7538,2.7581,2.7585,2.7648,2.7633,2.7695,2.7586,2.7575,2.7737,2.7738,2.7739,2.774,2.774,2.7215,2.7218,2.7248,2.7275,2.7287,2.7365,2.7366,2.7428,2.7486,2.7472,2.7482,2.7484,2.7493,2.7473,2.7472,2.7472,2.7472,2.7471,2.7471,2.7067,2.7104,2.7098,2.7143,2.7161,2.7192,2.7268,2.7287,2.7323,2.7368,2.7369,2.743,2.7564,2.7596,2.7465,2.7466,2.7467,2.7468,2.7468,2.6901,2.695,2.694,2.6958,2.7019,2.7028,2.711,2.7143,2.7168,2.7166,2.7233,2.7323,2.7354,2.7368,2.7394,2.722,2.722,2.722,2.722,2.679,2.6814,2.6821,2.6846,2.6877,2.6952,2.6939,2.6999,2.7067,2.7087,2.7122,2.7163,2.7174,2.72,2.7217,2.7242,2.7033,2.7033,2.7033,2.6692,2.6723,2.67,2.6771,2.6824,2.6867,2.6858,2.6883,2.6971,2.7026,2.7103,2.7111,2.7179,2.7197,2.7251,2.7276,2.7324,0,0]}]]